sat.trackr.live / text

‹ back to catalog

STARLINK-31195

NORAD 58796 · 2024-012K

PAYLOAD ACTIVE UNKNOWN

§ Identity

Operator
Country
US
Launch date
2024-01-15
Launch site
AFETR
Launch vehicle
Mass (kg)
RCS (m²)

Purposes: comms

External: N2YO · Heavens-Above · Gunter

§ Orbital elements

Epoch: 2026-05-24T07:02:59.184384Z

Period
94.27 min
Inclination
43.0008°
Eccentricity
0.0000988
Mean motion
15.27576247 rev/d
Perigee alt
482.4 km
Apogee alt
483.7 km
Semi-major
6,861.2 km
B*
1.6055e-5
RAAN
98.7041°
Arg perigee
266.7453°
Mean anomaly
93.3285°
Rev number
13,279

§ Raw data

STARLINK-311951 58796U 24012K   26144.29374056  .00000180  00000+0  16055-4 0  99962 58796  43.0008  98.7041 0000988 266.7453  93.3285 15.27576247132797

JSON: /api/v1/satellites/58796 · /tle

For live sub-satellite position, see the globe view (requires WebGL).

§ Visibility from observer

Set your observer location to see the next 7 days of passes ≥ 10°. The values pass through the URL so the page stays shareable.

No JS? Fill the form by hand. The geolocation button needs JavaScript.